| time (UTC) | temp F | wind direction | speed MPH | gust MPH | rain 1hr in | rain 24hr in | rain mn in | humidity % | barometer mb |
| 20260506170011 | 63 | 335 | 0.0 | 0.0 | 0.00 | 0.01 | 0.00 | 80 | 1020.7 |
| 20260506164506 | 62 | 261 | 0.0 | 0.0 | 0.00 | 0.01 | 0.00 | 82 | 1020.7 |
| 20260506163004 | 60 | 259 | 0.0 | 0.0 | 0.00 | 0.01 | 0.00 | 82 | 1020.7 |
| 20260506161606 | 60 | 255 | 0.0 | 0.0 | 0.00 | 0.01 | 0.00 | 83 | 1020.8 |
| 20260506160058 | 59 | 267 | 0.0 | 0.0 | 0.00 | 0.01 | 0.00 | 83 | 1020.8 |
| 20260506154550 | 59 | 268 | 0.0 | 0.0 | 0.00 | 0.01 | 0.00 | 85 | 1020.9 |
| 20260506153047 | 58 | 239 | 0.0 | 0.0 | 0.00 | 0.01 | 0.00 | 86 | 1020.9 |
| 20260506151600 | 57 | 260 | 0.0 | 0.0 | 0.00 | 0.01 | 0.00 | 87 | 1020.8 |
| 20260506150040 | 57 | 271 | 0.0 | 0.0 | 0.00 | 0.01 | 0.00 | 88 | 1020.9 |
| 20260506144535 | 57 | 244 | 0.0 | 0.0 | 0.00 | 0.01 | 0.00 | 89 | 1020.8 |
| 20260506143043 | 57 | 257 | 0.0 | 0.0 | 0.00 | 0.01 | 0.00 | 89 | 1020.8 |
| 20260506141528 | 56 | 248 | 0.0 | 0.0 | 0.00 | 0.01 | 0.00 | 90 | 1020.6 |
| 20260506140032 | 56 | 244 | 0.0 | 0.0 | 0.00 | 0.01 | 0.00 | 90 | 1020.4 |
| 20260506134521 | 56 | 244 | 0.0 | 0.0 | 0.00 | 0.01 | 0.00 | 90 | 1020.3 |
| 20260506133023 | 56 | 244 | 0.0 | 0.0 | 0.00 | 0.01 | 0.00 | 90 | 1020.2 |
| 20260506131522 | 56 | 220 | 0.0 | 0.0 | 0.00 | 0.01 | 0.00 | 90 | 1020.1 |
| 20260506130016 | 56 | 220 | 0.0 | 0.0 | 0.00 | 0.01 | 0.00 | 90 | 1020.1 |
| 20260506124515 | 56 | 220 | 0.0 | 0.0 | 0.00 | 0.01 | 0.00 | 90 | 1020.0 |
| 20260506123016 | 56 | 199 | 0.0 | 0.0 | 0.00 | 0.01 | 0.00 | 90 | 1019.9 |
| 20260506121512 | 56 | 199 | 0.0 | 0.0 | 0.00 | 0.01 | 0.00 | 91 | 1019.8 |
| 20260506120011 | 56 | 199 | 0.0 | 0.0 | 0.00 | 0.01 | 0.00 | 91 | 1019.6 |
| 20260506114512 | 56 | 187 | 0.0 | 0.0 | 0.00 | 0.01 | 0.00 | 91 | 1019.6 |
| 20260506113010 | 56 | 187 | 0.0 | 0.0 | 0.00 | 0.01 | 0.00 | 90 | 1019.7 |
| 20260506111509 | 56 | 187 | 0.0 | 0.0 | 0.00 | 0.01 | 0.00 | 90 | 1019.7 |
| 20260506110007 | 56 | 187 | 0.0 | 0.0 | 0.00 | 0.01 | 0.00 | 90 | 1019.4 |
| 20260506104504 | 56 | 252 | 0.0 | 0.0 | 0.00 | 0.03 | 0.00 | 90 | 1019.3 |
| 20260506103010 | 56 | 252 | 0.0 | 0.0 | 0.00 | 0.03 | 0.00 | 90 | 1019.2 |
| 20260506101504 | 56 | 264 | 0.0 | 0.0 | 0.00 | 0.03 | 0.00 | 90 | 1019.1 |
| 20260506100003 | 56 | 264 | 0.0 | 0.0 | 0.00 | 0.10 | 0.00 | 90 | 1019.0 |
| 20260506094505 | 56 | 260 | 0.0 | 0.0 | 0.00 | 0.10 | 0.00 | 90 | 1018.9 |
| 20260506093002 | 56 | 260 | 0.0 | 0.0 | 0.00 | 0.10 | 0.00 | 90 | 1019.0 |
| 20260506091503 | 56 | 260 | 0.0 | 0.0 | 0.00 | 0.10 | 0.00 | 90 | 1018.9 |
| 20260506090000 | 56 | 260 | 0.0 | 0.0 | 0.00 | 0.13 | 0.00 | 90 | 1019.0 |
| 20260506084605 | 56 | 260 | 0.0 | 0.0 | 0.00 | 0.13 | 0.00 | 90 | 1019.1 |
| 20260506083100 | 56 | 260 | 0.0 | 0.0 | 0.00 | 0.13 | 0.00 | 90 | 1019.2 |
| 20260506081559 | 56 | 260 | 0.0 | 0.0 | 0.00 | 0.13 | 0.00 | 90 | 1019.3 |
| 20260506073051 | 55 | 264 | 0.0 | 0.0 | 0.00 | 0.14 | 0.00 | 91 | 1018.7 |
| 20260506071604 | 55 | 274 | 0.0 | 0.0 | 0.00 | 0.14 | 0.00 | 90 | 1018.6 |
| 20260506061542 | 56 | 252 | 0.0 | 0.0 | 0.00 | 0.17 | 0.14 | 87 | 1018.1 |
| 20260506044534 | 60 | 252 | 0.0 | 0.0 | 0.00 | 0.18 | 0.14 | 82 | 1017.2 |
| 20260506043031 | 61 | 284 | 0.0 | 0.0 | 0.00 | 0.18 | 0.14 | 83 | 1017.0 |
| 20260506041537 | 61 | 270 | 0.0 | 0.0 | 0.00 | 0.18 | 0.14 | 85 | 1016.8 |
| 20260506040030 | 61 | 251 | 0.0 | 0.0 | 0.00 | 0.18 | 0.14 | 85 | 1016.8 |
| 20260506034527 | 61 | 239 | 0.0 | 0.0 | 0.00 | 0.18 | 0.14 | 85 | 1016.5 |
| 20260506033030 | 61 | 245 | 0.0 | 0.0 | 0.00 | 0.18 | 0.14 | 83 | 1016.3 |
| 20260506031527 | 62 | 225 | 0.0 | 0.0 | 0.00 | 0.18 | 0.14 | 83 | 1016.2 |
| 20260506030025 | 62 | 225 | 0.0 | 0.0 | 0.00 | 0.18 | 0.14 | 81 | 1016.1 |
| 20260506024523 | 63 | 228 | 0.0 | 0.0 | 0.00 | 0.18 | 0.14 | 81 | 1015.8 |
| 20260506023022 | 63 | 228 | 0.0 | 0.0 | 0.00 | 0.18 | 0.14 | 79 | 1015.7 |
| 20260506021522 | 63 | 240 | 0.0 | 0.0 | 0.00 | 0.18 | 0.14 | 78 | 1015.6 |
| 20260506020024 | 64 | 238 | 0.0 | 0.0 | 0.00 | 0.18 | 0.14 | 77 | 1015.5 |
| 20260506014525 | 64 | 274 | 0.0 | 0.0 | 0.00 | 0.18 | 0.14 | 77 | 1015.5 |
| 20260506013026 | 64 | 232 | 0.0 | 0.0 | 0.00 | 0.18 | 0.14 | 75 | 1015.4 |
| 20260506011520 | 65 | 243 | 0.0 | 0.0 | 0.00 | 0.18 | 0.14 | 74 | 1015.4 |
| 20260506010025 | 66 | 234 | 0.0 | 0.0 | 0.00 | 0.18 | 0.14 | 74 | 1015.3 |
| 20260506004528 | 66 | 264 | 0.0 | 0.0 | 0.00 | 0.18 | 0.14 | 74 | 1015.3 |
| 20260506003017 | 67 | 273 | 0.0 | 0.0 | 0.00 | 0.18 | 0.14 | 72 | 1015.3 |
| 20260506001516 | 67 | 245 | 0.0 | 0.0 | 0.00 | 0.18 | 0.14 | 72 | 1015.2 |
| 20260506000019 | 67 | 266 | 0.0 | 0.0 | 0.00 | 0.18 | 0.14 | 73 | 1015.2 |
| 20260505234517 | 67 | 267 | 0.0 | 0.0 | 0.00 | 0.18 | 0.14 | 72 | 1015.1 |
| 20260505233012 | 67 | 271 | 0.0 | 0.0 | 0.00 | 0.18 | 0.14 | 74 | 1015.1 |
| 20260505231510 | 66 | 265 | 0.0 | 0.0 | 0.00 | 0.18 | 0.14 | 74 | 1015.1 |
| 20260505230009 | 64 | 288 | 0.0 | 0.0 | 0.00 | 0.18 | 0.14 | 76 | 1015.2 |
| 20260505224507 | 64 | 231 | 0.0 | 0.0 | 0.00 | 0.18 | 0.14 | 76 | 1015.3 |
| 20260505223103 | 64 | 197 | 0.0 | 0.0 | 0.00 | 0.18 | 0.14 | 76 | 1015.5 |
| 20260505221502 | 64 | 214 | 0.0 | 0.0 | 0.00 | 0.18 | 0.14 | 77 | 1015.6 |
| 20260505220101 | 63 | 267 | 0.0 | 0.0 | 0.00 | 0.18 | 0.14 | 79 | 1015.7 |
| 20260505214607 | 63 | 217 | 0.0 | 0.0 | 0.00 | 0.18 | 0.14 | 82 | 1015.7 |
| 20260505213059 | 61 | 211 | 0.0 | 0.0 | 0.00 | 0.18 | 0.14 | 83 | 1015.8 |
| 20260505211557 | 60 | 256 | 0.0 | 0.0 | 0.00 | 0.18 | 0.14 | 85 | 1016.0 |
| 20260505210052 | 60 | 242 | 0.0 | 0.0 | 0.01 | 0.18 | 0.14 | 85 | 1015.9 |
| 20260505204547 | 59 | 269 | 0.0 | 0.0 | 0.01 | 0.18 | 0.14 | 86 | 1016.0 |
| 20260505203147 | 60 | 263 | 0.0 | 0.0 | 0.01 | 0.18 | 0.14 | 86 | 1016.0 |
| 20260505201553 | 60 | 266 | 0.0 | 0.0 | 0.01 | 0.18 | 0.14 | 85 | 1016.0 |
| 20260505200045 | 60 | 226 | 0.0 | 0.0 | 0.00 | 0.17 | 0.13 | 83 | 1016.1 |
| 20260505194543 | 60 | 228 | 0.0 | 0.0 | 0.00 | 0.17 | 0.13 | 84 | 1016.2 |
| 20260505193047 | 59 | 254 | 0.0 | 0.0 | 0.00 | 0.17 | 0.13 | 85 | 1016.2 |
| 20260505191549 | 59 | 272 | 0.0 | 0.0 | 0.00 | 0.17 | 0.13 | 85 | 1016.2 |
| 20260505190039 | 59 | 246 | 0.0 | 0.0 | 0.00 | 0.17 | 0.13 | 86 | 1016.1 |
| 20260505184533 | 58 | 241 | 0.0 | 0.0 | 0.00 | 0.17 | 0.13 | 86 | 1016.0 |
| 20260505183045 | 58 | 298 | 0.0 | 0.0 | 0.00 | 0.17 | 0.13 | 88 | 1016.1 |
| 20260505181531 | 58 | 206 | 0.0 | 0.0 | 0.00 | 0.17 | 0.13 | 88 | 1016.0 |
| 20260505180034 | 58 | 221 | 0.0 | 0.0 | 0.00 | 0.17 | 0.13 | 89 | 1015.7 |
| 20260505174530 | 57 | 224 | 0.0 | 0.0 | 0.00 | 0.17 | 0.13 | 90 | 1015.7 |
| 20260505173028 | 57 | 217 | 0.0 | 0.0 | 0.00 | 0.17 | 0.13 | 91 | 1015.7 |
| 20260505171527 | 56 | 232 | 0.0 | 0.0 | 0.00 | 0.17 | 0.13 | 92 | 1015.7 |